Chester, CT

6:20 AM EDT on April 30, 2017 (GMT -0400)
Chester

Weather History for KSNC - May, 2013

Change the Weather History Date:

Sunday, May 26, 2013

  Actual Average (KHVN) Record (KHVN)
Temperature  
Mean Temperature 52 °F -  
Max Temperature 60 °F 67 °F 87 °F (2016)
Min Temperature 44 °F 51 °F 41 °F (1972)
Degree Days  
Heating Degree Days 13    
Growing Degree Days 2 (Base 50)    
Moisture  
Dew Point 38 °F    
Average Humidity 62    
Maximum Humidity 81    
Minimum Humidity 39    
Precipitation  
Precipitation 0.00 in - - ()
Sea Level Pressure  
Sea Level Pressure 29.97 in    
Wind  
Wind Speed 11 mph (NW)    
Max Wind Speed 21 mph    
Max Gust Speed 33 mph    
Visibility 10 miles    
Events      
Averages and records for this station are not official NWS values.
T = Trace of Precipitation, MM = Missing Value Source: NWS Daily Summary

Daily Weather History Graph

Daily Weather History Graph

Search for Another Location

Airport or City:

Trip Planner

Search our weather history database for the weather conditions in past years. The results will help you decide how hot, cold, wet, or windy it might be!

Date:

Astronomy

May. 26, 2013 Rise Set
Actual Time 5:22 AM EDT 8:12 PM EDT
Civil Twilight 4:49 AM EDT 8:45 PM EDT
Nautical Twilight 4:08 AM EDT 9:26 PM EDT
Astronomical Twilight 3:21 AM EDT 10:14 PM EDT
Moon 9:57 PM EDT (5/26) 6:48 AM EDT (5/26)
Length of Visible Light 15h 55m
Length of Day
14h 50m
Waning Gibbous, 97% of the Moon is Illuminated
May 26
Waning Gibbous
May 31
Last Quarter
Jun 8
New
Jun 16
First Quarter
Jun 23
Full

Hourly Weather History & Observations

Time (EDT) Temp. Windchill Dew Point Humidity Pressure Visibility Wind Dir Wind Speed Gust Speed Precip Events Conditions
12:15 AM 44.6 °F 39.2 °F 39.2 °F 81% 29.84 in 10.0 mi WNW 10.4 mph 17.3 mph N/A   Mostly Cloudy
12:35 AM 44.6 °F 39.2 °F 39.2 °F 81% 29.84 in 10.0 mi NW 10.4 mph - N/A   Mostly Cloudy
12:55 AM 44.6 °F 39.2 °F 39.2 °F 81% 29.84 in 10.0 mi NW 10.4 mph - N/A   Mostly Cloudy
1:15 AM 44.6 °F 39.2 °F 39.2 °F 81% 29.84 in 10.0 mi WNW 10.4 mph - N/A   Mostly Cloudy
1:35 AM 44.6 °F 40.2 °F 39.2 °F 81% 29.84 in 10.0 mi NW 8.1 mph 18.4 mph N/A   Scattered Clouds
1:55 AM 44.6 °F 40.7 °F 39.2 °F 81% 29.84 in 10.0 mi WNW 6.9 mph 16.1 mph N/A   Scattered Clouds
2:15 AM 44.6 °F 39.7 °F 39.2 °F 81% 29.84 in 10.0 mi NW 9.2 mph 19.6 mph N/A   Scattered Clouds
2:35 AM 44.6 °F 40.2 °F 39.2 °F 81% 29.84 in 10.0 mi NW 8.1 mph - N/A   Mostly Cloudy
2:55 AM 44.6 °F 40.2 °F 39.2 °F 81% 29.83 in 10.0 mi NW 8.1 mph - N/A   Mostly Cloudy
3:15 AM 44.6 °F 40.2 °F 39.2 °F 81% 29.84 in 10.0 mi NW 8.1 mph - N/A   Mostly Cloudy
3:35 AM 44.6 °F 39.2 °F 39.2 °F 81% 29.84 in 10.0 mi NW 10.4 mph 18.4 mph N/A   Mostly Cloudy
3:55 AM 44.6 °F 40.7 °F 39.2 °F 81% 29.84 in 10.0 mi NW 6.9 mph - N/A   Partly Cloudy
4:15 AM 44.6 °F 39.7 °F 37.4 °F 76% 29.85 in 10.0 mi WNW 9.2 mph 17.3 mph N/A   Scattered Clouds
4:35 AM 44.6 °F 40.7 °F 39.2 °F 81% 29.86 in 10.0 mi WNW 6.9 mph - N/A   Scattered Clouds
4:55 AM 44.6 °F 40.2 °F 39.2 °F 81% 29.86 in 10.0 mi WNW 8.1 mph - N/A   Partly Cloudy
5:15 AM 44.6 °F 40.2 °F 39.2 °F 81% 29.87 in 10.0 mi WNW 8.1 mph - N/A   Clear
5:35 AM 44.6 °F 40.2 °F 39.2 °F 81% 29.88 in 10.0 mi WNW 8.1 mph - N/A   Clear
5:55 AM 46.4 °F 42.9 °F 39.2 °F 76% 29.88 in 10.0 mi West 6.9 mph - N/A   Scattered Clouds
6:15 AM 46.4 °F 41.9 °F 39.2 °F 76% 29.89 in 10.0 mi WNW 9.2 mph 17.3 mph N/A   Scattered Clouds
6:35 AM 46.4 °F 41.1 °F 39.2 °F 76% 29.89 in 10.0 mi WNW 11.5 mph 17.3 mph N/A   Mostly Cloudy
6:55 AM 48.2 °F - 39.2 °F 71% 29.89 in 10.0 mi WNW 9.2 mph 18.4 mph N/A   Scattered Clouds
7:15 AM 48.2 °F - 39.2 °F 71% 29.90 in 9.0 mi WNW 12.7 mph 23.0 mph N/A   Scattered Clouds
7:35 AM 51.8 °F - 39.2 °F 62% 29.90 in 10.0 mi WNW 13.8 mph 24.2 mph N/A   Scattered Clouds
7:55 AM 51.8 °F - 37.4 °F 58% 29.90 in 10.0 mi WNW 15.0 mph 25.3 mph N/A   Partly Cloudy
8:15 AM 51.8 °F - 37.4 °F 58% 29.90 in 10.0 mi NW 8.1 mph 20.7 mph N/A   Partly Cloudy
8:35 AM 51.8 °F - 37.4 °F 58% 29.91 in 10.0 mi NW 15.0 mph 23.0 mph N/A   Scattered Clouds
8:55 AM 51.8 °F - 37.4 °F 58% 29.91 in 10.0 mi NW 17.3 mph 29.9 mph N/A   Mostly Cloudy
9:15 AM 51.8 °F - 37.4 °F 58% 29.92 in 10.0 mi NW 10.4 mph 27.6 mph N/A   Mostly Cloudy
9:35 AM 53.6 °F - 37.4 °F 54% 29.92 in 10.0 mi NW 19.6 mph 29.9 mph N/A   Mostly Cloudy
9:55 AM 53.6 °F - 37.4 °F 54% 29.92 in 10.0 mi NNW 13.8 mph 26.5 mph N/A   Mostly Cloudy
10:15 AM 53.6 °F - 37.4 °F 54% 29.92 in 10.0 mi NNW 15.0 mph 33.4 mph N/A   Scattered Clouds
10:35 AM 55.4 °F - 37.4 °F 51% 29.93 in 9.0 mi NNW 18.4 mph 32.2 mph N/A   Scattered Clouds
10:55 AM 55.4 °F - 35.6 °F 47% 29.93 in 10.0 mi NNW 12.7 mph 32.2 mph N/A   Partly Cloudy
11:15 AM 57.2 °F - 35.6 °F 44% 29.93 in 9.0 mi NNW 16.1 mph 27.6 mph N/A   Partly Cloudy
11:35 AM 55.4 °F - 37.4 °F 51% 29.93 in 9.0 mi NNW 13.8 mph 25.3 mph N/A   Scattered Clouds
11:55 AM 57.2 °F - 35.6 °F 44% 29.93 in 10.0 mi NNW 13.8 mph 24.2 mph N/A   Scattered Clouds
12:15 PM 59.0 °F - 35.6 °F 42% 29.94 in 10.0 mi NW 17.3 mph 27.6 mph N/A   Scattered Clouds
12:35 PM 57.2 °F - 37.4 °F 48% 29.94 in 9.0 mi NNW 15.0 mph 24.2 mph N/A   Light Drizzle
12:55 PM 59.0 °F - 35.6 °F 42% 29.94 in 9.0 mi NW 16.1 mph 27.6 mph N/A   Partly Cloudy
1:15 PM 59.0 °F - 33.8 °F 39% 29.94 in 10.0 mi NNW 13.8 mph 29.9 mph N/A   Scattered Clouds
1:35 PM 59.0 °F - 35.6 °F 42% 29.95 in 10.0 mi NW 16.1 mph 25.3 mph N/A   Scattered Clouds
1:55 PM 57.2 °F - 35.6 °F 44% 29.96 in 9.0 mi NNW 15.0 mph 26.5 mph N/A   Mostly Cloudy
2:15 PM 57.2 °F - 35.6 °F 44% 29.97 in 10.0 mi NNW 13.8 mph 25.3 mph N/A   Mostly Cloudy
2:35 PM 60.8 °F - 35.6 °F 39% 29.97 in 10.0 mi NW 13.8 mph 24.2 mph N/A   Scattered Clouds
2:55 PM 59.0 °F - 37.4 °F 45% 29.97 in 10.0 mi NW 17.3 mph 26.5 mph N/A   Mostly Cloudy
3:15 PM 60.8 °F - 37.4 °F 42% 29.98 in 10.0 mi NW 13.8 mph 28.8 mph N/A   Partly Cloudy
3:35 PM 60.8 °F - 35.6 °F 39% 29.99 in 9.0 mi NW 17.3 mph 27.6 mph N/A   Mostly Cloudy
3:55 PM 57.2 °F - 37.4 °F 48% 30.00 in 10.0 mi NNW 11.5 mph 23.0 mph N/A   Mostly Cloudy
4:15 PM 59.0 °F - 37.4 °F 45% 30.01 in 10.0 mi NNW 10.4 mph 18.4 mph N/A   Mostly Cloudy
4:35 PM 59.0 °F - 35.6 °F 42% 30.02 in 10.0 mi NW 20.7 mph 32.2 mph N/A   Mostly Cloudy
4:55 PM 57.2 °F - 35.6 °F 44% 30.02 in 10.0 mi NNW 13.8 mph 29.9 mph N/A   Mostly Cloudy
5:15 PM 57.2 °F - 35.6 °F 44% 30.03 in 10.0 mi NNW 19.6 mph 26.5 mph N/A   Mostly Cloudy
5:35 PM 59.0 °F - 35.6 °F 42% 30.04 in 10.0 mi North 15.0 mph 28.8 mph N/A   Mostly Cloudy
5:55 PM 57.2 °F - 35.6 °F 44% 30.05 in 10.0 mi NNW 17.3 mph 33.4 mph N/A   Partly Cloudy
6:15 PM 57.2 °F - 35.6 °F 44% 30.06 in 10.0 mi NNW 11.5 mph 21.9 mph N/A   Partly Cloudy
6:35 PM 55.4 °F - 35.6 °F 47% 30.07 in 10.0 mi NNW 13.8 mph 29.9 mph N/A   Partly Cloudy
6:55 PM 55.4 °F - 37.4 °F 51% 30.08 in 10.0 mi NNW 16.1 mph 27.6 mph N/A   Clear
7:15 PM 53.6 °F - 37.4 °F 54% 30.10 in 10.0 mi NNW 11.5 mph 20.7 mph N/A   Clear
7:35 PM 53.6 °F - 37.4 °F 54% 30.10 in 10.0 mi NNW 15.0 mph 20.7 mph N/A   Clear
7:55 PM 53.6 °F - 37.4 °F 54% 30.11 in 10.0 mi NNW 5.8 mph - N/A   Clear
8:15 PM 51.8 °F - 37.4 °F 58% 30.12 in 10.0 mi North 4.6 mph - N/A   Clear
8:35 PM 51.8 °F - 39.2 °F 62% 30.12 in 10.0 mi NNW 4.6 mph - N/A   Clear
8:55 PM 50.0 °F - 39.2 °F 66% 30.14 in 10.0 mi Calm Calm - N/A   Clear
9:15 PM 48.2 °F - 39.2 °F 71% 30.14 in 10.0 mi Calm Calm - N/A   Clear
9:35 PM 46.4 °F 45.2 °F 41.0 °F 81% 30.15 in 10.0 mi West 3.5 mph - N/A   Clear
9:55 PM 46.4 °F 45.2 °F 41.0 °F 81% 30.15 in 10.0 mi WSW 3.5 mph - N/A   Clear
10:15 PM 46.4 °F 44.3 °F 41.0 °F 81% 30.15 in 10.0 mi West 4.6 mph - N/A   Clear
10:35 PM 48.2 °F - 39.2 °F 71% 30.16 in 10.0 mi West 3.5 mph - N/A   Clear
10:55 PM 46.4 °F 44.3 °F 41.0 °F 81% 30.16 in 10.0 mi West 4.6 mph - N/A   Clear
11:15 PM 46.4 °F - 41.0 °F 81% 30.17 in 10.0 mi Calm Calm - N/A   Clear
11:35 PM 46.4 °F 44.3 °F 41.0 °F 81% 30.17 in 10.0 mi West 4.6 mph - N/A   Clear
11:55 PM 46.4 °F 43.5 °F 39.2 °F 76% 30.17 in 10.0 mi West 5.8 mph - N/A   Clear